Flag for U.S.A. Weather past 2 weeks in Terre Haute, Indiana, U.S.A.

Now
66 °F

Passing clouds.


Feels Like: 66 °F
Forecast: 62 / 81 °F
Wind: 3 mph from North

Location: Terre Haute International Airport - Hulman Field

Current Time: Jul 4, 2015 at 3:45:37 AM

Latest Report: Jul 4, 2015 at 2:53 AM


Visibility: 7 mi

Pressure: 29.93 "Hg

Humidity: 90%

Dew point: 63 °F

Location of Terre HauteLocation

Historic Weather in Terre Haute — Graph

°F

Terre Haute temperature yesterday

Maximum temperature yesterday: 77 °F (at 1:53 PM)
Minimum temperature yesterday: 67 °F (at 11:53 PM)
Average temperature yesterday: 72 °F

Past Weeks' High & Low Weather Summary

 TemperatureHumidityPressure
High86 °F (Jun 22, 2:53 PM)100% (Jul 1, 4:53 AM)30.18 "Hg (Jul 1, 4:53 AM)
Low54 °F (Jun 28, 6:53 AM)45% (Jun 28, 1:53 PM)29.75 "Hg (Jun 29, 6:53 AM)
Average72 °F81%29.92 "Hg
* Reported Jun 19 1:53 AM — Jul 4 1:53 AM, Terre Haute, Weather by CustomWeather, © 2015

Note: Actual official high and low records may vary slightly from our data, if they occured in-between our weather recording intervals... More about our weather records

Advertising

Terre Haute weather history for previous 24 hours

 ConditionsComfort  
Time TempWeatherWind HumidityBarometerVisibility
1:53 AM
Sat, Jul 4
66 °FOvercast.3 mph90%29.93 "Hg7 mi
12:53 AM66 °FFog.No wind90%29.92 "Hg6 mi
11:53 PM
Fri, Jul 3
67 °FPassing clouds.3 mph93%29.92 "Hg8 mi
10:53 PM68 °FClear.No wind87%29.90 "Hg10 mi
9:53 PM70 °FSunny.3 mph87%29.89 "Hg10 mi
8:53 PM73 °FMostly cloudy.5 mph76%29.88 "Hg10 mi
7:53 PM75 °FSunny.8 mph69%29.87 "Hg10 mi
6:53 PM77 °FPassing clouds.9 mph69%29.86 "Hg10 mi
5:53 PM77 °FPassing clouds.13 mph69%29.86 "Hg10 mi
4:53 PM76 °FMore clouds than sun.9 mph72%29.87 "Hg10 mi
3:53 PM76 °FMostly cloudy.9 mph72%29.87 "Hg10 mi
2:53 PM77 °FMostly cloudy.7 mph69%29.87 "Hg10 mi
1:53 PM77 °FBroken clouds.8 mph71%29.88 "Hg9 mi
12:53 PM75 °FMostly cloudy.No wind74%29.90 "Hg9 mi
11:53 AM74 °FOvercast.8 mph76%29.88 "Hg9 mi
10:53 AM73 °FOvercast.6 mph76%29.88 "Hg10 mi
9:53 AM70 °FPartly sunny.7 mph79%29.89 "Hg10 mi
8:53 AM69 °FBroken clouds.8 mph81%29.88 "Hg10 mi
7:53 AM68 °FPartly sunny.7 mph84%29.88 "Hg10 mi
7:03 AM68 °FOvercast.7 mph84%29.89 "Hg10 mi
6:53 AM68 °FMostly cloudy.7 mph84%29.87 "Hg10 mi
5:53 AM68 °FPartly cloudy.7 mph87%29.85 "Hg8 mi
4:53 AM68 °FPartly cloudy.6 mph87%29.85 "Hg9 mi
3:53 AM69 °FPassing clouds.7 mph84%29.85 "Hg9 mi
Weather by CustomWeather, © 2015

See weather overviewHow to use our weather pages